This is the latest recevied weather packets stored in our database for station/object W8RD. If no packets are shown the sender has not sent any weather packets the latest 10 day(s).
| Time | Temp. | Humidity | Pressure | Rain* | Wind** | Luminosity | Snow |
|---|---|---|---|---|---|---|---|
| 1777464044 | 21.11° C | 92% | 1018.4 hPa | 0 mm | - | 28 W/m² | - |
| 1777463440 | 21.11° C | 92% | 1018.3 hPa | 0 mm | - | 24 W/m² | - |
| 1777462236 | 20.56° C | 92% | 1018.1 hPa | 0 mm | - | 10 W/m² | - |
| 1777461635 | 20.56° C | 92% | 1017.8 hPa | 0 mm | - | 7 W/m² | - |
| 1777461032 | 20.56° C | 91% | 1017.5 hPa | 0 mm | - | 5 W/m² | - |
| 1777459229 | 21.11° C | 90% | 1017.3 hPa | 0 mm | - | 0 W/m² | - |
| 1777458628 | 21.11° C | 90% | 1017.2 hPa | 0 mm | - | 0 W/m² | - |
| 1777458026 | 21.11° C | 90% | 1017.1 hPa | 0 mm | - | 0 W/m² | - |
| 1777457422 | 21.11° C | 90% | 1016.9 hPa | 0 mm | - | 0 W/m² | - |
| 1777456820 | 21.11° C | 89% | 1016.8 hPa | 0 mm | - | 0 W/m² | - |
| 1777455614 | 21.67° C | 87% | 1016.5 hPa | 0 mm | - | 0 W/m² | - |
| 1777455014 | 21.67° C | 87% | 1016.4 hPa | 0 mm | - | 0 W/m² | - |
| 1777454411 | 21.67° C | 87% | 1016.6 hPa | 0 mm | - | 0 W/m² | - |
| 1777453810 | 21.67° C | 86% | 1016.8 hPa | 0 mm | - | 0 W/m² | - |
| 1777453210 | 21.67° C | 86% | 1017 hPa | 0 mm | - | 0 W/m² | - |
| 1777452610 | 21.67° C | 86% | 1016.6 hPa | 0 mm | - | 0 W/m² | - |
| 1777452008 | 21.67° C | 86% | 1016.8 hPa | 0 mm | - | 0 W/m² | - |
| 1777451405 | 21.67° C | 86% | 1016.7 hPa | 0 mm | - | 0 W/m² | - |
| 1777450803 | 21.67° C | 85% | 1017 hPa | 0 mm | - | 0 W/m² | - |
| 1777450201 | 21.67° C | 85% | 1016.9 hPa | 0 mm | - | 0 W/m² | - |
| 1777449599 | 22.22° C | 84% | 1016.8 hPa | 0 mm | - | 0 W/m² | - |
| 1777448996 | 22.22° C | 84% | 1016.8 hPa | 0 mm | - | 0 W/m² | - |
| 1777448397 | 22.22° C | 84% | 1016.9 hPa | 0 mm | - | 0 W/m² | - |
| 1777447795 | 21.67° C | 85% | 1017.1 hPa | 0 mm | - | 0 W/m² | - |
| 1777447193 | 21.67° C | 85% | 1017 hPa | 0 mm | - | 0 W/m² | - |
* Rain latest hour (hover to see other rain measurements)
** Current wind speed in m/s (hover to see current wind gust speed)